Simultaneous Nadir Overpasses (SNOs) Predictions

Prediction of SNOs between GOES-15 and METOP-C Satellite Orbit:

Table of predicted SNOs for the next 14.0 days since TLE Epoch: 2/25/2023
Index Date Time (GOES-15) GOES-15 Lat,Lon METOP-C Lat,Lon Distance(km) Time Diff (sec)
1 02/26/2023 06:13:52 0.04,-128.10 -0.60,-131.06 337.38 80
2 02/27/2023 05:55:52 0.03,-128.08 0.46,-126.06 229.94 80
3 02/28/2023 18:12:03 -0.04,-128.01 0.54,-130.62 296.63 80
4 03/01/2023 17:54:04 -0.04,-127.99 -0.58,-125.62 270.20 80
5 03/03/2023 06:10:24 0.05,-127.99 -0.44,-130.22 254.33 80
6 03/04/2023 05:52:24 0.05,-127.96 0.63,-125.21 312.61 80
7 03/05/2023 18:08:35 -0.05,-127.90 0.38,-129.78 214.36 80
8 03/06/2023 17:50:35 -0.05,-127.87 -0.75,-124.78 352.29 80
9 03/08/2023 06:06:55 0.06,-127.86 -0.30,-129.37 172.58 80
10 03/09/2023 05:48:55 0.05,-127.83 0.83,-124.38 394.13 80
11 03/10/2023 18:05:07 -0.06,-127.76 0.18,-128.94 133.42 80
